Notices

What's New in latest Release from April 7th, 2021:

- Updated Glossary, including Speed of Maximum Gust, and Total Hourly Precipitation

- Updated national and regional climate services offices contacts and prices information

- Addition of station inventory lists for 1981-2010, 1971-2000, and 1961-1990 Normals.

If you haven't already, please take our survey and provide feedback about our website: https://eccc.sondage-survey.ca/f/LanguageSelection.aspx?s=442ca660-fcf1-47c0-95a9-59707d6fd709

Hourly Data Report for January 24, 2021

SHEARWATER RCS
NOVA SCOTIA
Current Station Operator: ECCC - MSC

44°37'47.000" N
63°30'48.000" W
24.00 m
8205092
71264
AAW

Download Data

Hourly Data (January 2021)
Hourly Data Report for January 24, 2021
TIME
LST
Temp Definition
°C
Dew Point Definition
°C
Rel Hum Definition
%
Precip. Amount Definition
mm

Wind Dir Definition
10's deg

Wind Spd Definition
km/h
Visibility Definition
km
Stn Press Definition
kPa
Hmdx Definition


Wind Chill Definition


Weather Definition


00:00 -6.2 -9.7 76 0.2 29 15   99.39   -12 LegendNANA
01:00 -7.0 -9.8 80 0.0 26 9   99.34   -11 LegendNANA
02:00 -6.8 -9.2 83 0.0 25 12   99.29   -12 LegendNANA
03:00 -6.9 -10.3 77 0.0 27 14   99.26   -13 LegendNANA
04:00 -7.3 -11.1 74 0.0 28 13   99.21   -13 LegendNANA
05:00 -7.4 -11.0 75 0.0 27 13   99.18   -13 LegendNANA
06:00 -7.7 -11.3 75 0.0 28 14   99.16   -14 LegendNANA
07:00 -8.2 -11.0 80 0.0 27 14   99.16   -14 LegendNANA
08:00 -8.0 -11.0 79 0.0 27 13   99.16   -14 LegendNANA
09:00 -7.5 -11.0 76 0.0 28 14   99.15   -13 LegendNANA
10:00 -7.0 -11.0 73 0.0 29 16   99.17   -13 LegendNANA
11:00 -6.3 -9.8 76 0.0 29 14   99.16   -12 LegendNANA
12:00 -5.6 -9.4 75 0.0 29 14   99.10   -11 LegendNANA
13:00 -5.2 -9.0 75 0.0 31 19   99.08   -12 LegendNANA
14:00 -4.7 -7.9 78 0.0 31 16   99.10   -10 LegendNANA
15:00 -4.4 -6.9 82 0.0 31 15   99.14   -10 LegendNANA
16:00 -4.1 -5.9 88 0.0 32 12   99.19   -9 LegendNANA
17:00 -3.7 -5.3 88 0.0 32 8   99.25   -7 LegendNANA
18:00 -3.0 -6.5 77 0.2 32 24   99.33   -10 LegendNANA
19:00 -3.3 -6.7 77 0.0 32 18   99.41   -9 LegendNANA
20:00 -3.5 -5.4 87 0.0 32 11   99.49   -8 LegendNANA
21:00 -3.2 -4.8 89 0.0 31 8   99.50   -6 LegendNANA
22:00 -2.2 -3.6 90 0.2 29 8   99.50   -5 LegendNANA
23:00 -1.2 -2.7 90 0.0 31 15   99.53   -6 LegendNANA

Notes on Data Quality.

Legend

  • E = Estimated
  • M = Missing
  • NA = Not Available*
  • [empty] = Indicates an unobserved value
Date modified: